CW0927 Weather Reports


Display with metric or nautical units.
time (UTC)temp
F
wind
direction
speed
MPH
gust
MPH
rain 1hr
in
rain 24hr
in
rain mn
in
humidity
%
barometer
mb
20260507083828 67 152 0.0 0.0 0.00 0.00 0.00 81 1016.5
20260507083330 67 152 0.0 0.0 0.00 0.00 0.00 81 1016.5
20260507082901 67 152 0.0 0.0 0.00 0.00 0.00 80 1016.4
20260507082404 68 152 0.0 0.0 0.00 0.00 0.00 80 1016.4
20260507081846 68 152 0.0 0.0 0.00 0.00 0.00 80 1016.4
20260507081347 68 152 0.0 0.0 0.00 0.00 0.00 80 1016.4
20260507080847 68 152 0.0 0.0 0.00 0.00 0.00 79 1016.4
20260507080326 68 152 0.0 0.0 0.00 0.00 0.00 79 1016.2
20260507075832 68 152 0.0 0.0 0.00 0.00 0.00 79 1016.3
20260507075400 68 152 0.0 0.0 0.00 0.00 0.00 78 1016.3
20260507074910 68 152 0.0 0.0 0.00 0.00 0.00 78 1016.4
20260507074352 69 152 0.0 0.0 0.00 0.00 0.00 78 1016.4
20260507073828 69 152 0.0 0.0 0.00 0.00 0.00 78 1016.4
20260507073330 69 152 0.0 0.0 0.00 0.00 0.00 78 1016.5
20260507072831 69 152 0.0 0.0 0.00 0.00 0.00 77 1016.5
20260507072330 69 152 0.0 0.0 0.00 0.00 0.00 77 1016.6
20260507071859 70 152 0.0 0.0 0.00 0.00 0.00 77 1016.6
20260507071337 70 152 0.0 0.0 0.00 0.00 0.00 76 1016.7
20260507070838 70 152 0.0 0.0 0.00 0.00 0.00 75 1016.7
20260507070336 70 152 0.0 0.0 0.00 0.00 0.00 75 1016.8
20260507065907 70 152 0.0 0.0 0.00 0.00 0.00 75 1016.8
20260507065346 70 152 0.0 0.0 0.00 0.00 0.00 75 1016.9
20260507064846 71 152 0.0 0.0 0.00 0.00 0.00 74 1016.9
20260507064353 71 152 0.0 0.0 0.00 0.00 0.00 74 1017.0
20260507063833 71 152 0.0 0.0 0.00 0.00 0.00 74 1017.1
20260507063344 71 152 0.0 0.0 0.00 0.00 0.00 73 1017.0
20260507062826 72 152 0.0 0.0 0.00 0.00 0.00 72 1017.1
20260507062327 72 152 0.0 0.0 0.00 0.00 0.00 72 1017.2
20260507061828 72 152 0.0 0.0 0.00 0.00 0.00 71 1017.2
20260507061327 72 152 0.0 0.0 0.00 0.00 0.00 71 1017.3
20260507060825 73 152 0.0 0.0 0.00 0.00 0.00 70 1017.5
20260507060325 73 152 0.0 0.0 0.00 0.00 0.00 70 1017.6
20260507055846 73 152 0.0 0.0 0.00 0.00 0.00 69 1017.6
20260507055323 74 152 0.0 0.0 0.00 0.00 0.00 69 1017.7
20260507054824 74 152 0.0 0.0 0.00 0.00 0.00 68 1017.6
20260507054350 74 152 0.0 0.0 0.00 0.00 0.00 68 1017.7
20260507053830 74 152 0.0 0.0 0.00 0.00 0.00 67 1017.7
20260507053334 75 152 0.0 0.0 0.00 0.00 0.00 67 1017.7
20260507052831 75 152 0.0 0.0 0.00 0.00 0.00 66 1017.8
20260507052331 75 152 0.0 0.0 0.00 0.00 0.00 66 1017.8
20260507051832 75 152 0.0 0.0 0.00 0.00 0.00 66 1017.9
20260507051333 75 152 0.0 0.0 0.00 0.00 0.00 66 1017.9
20260507050833 75 152 0.0 0.0 0.00 0.00 0.00 66 1018.0
20260507050332 76 152 0.0 0.0 0.00 0.00 0.00 65 1018.0
20260507045858 76 152 0.0 0.0 0.00 0.00 0.00 65 1018.0
20260507045337 76 152 0.0 0.0 0.00 0.00 0.00 65 1018.0
20260507044834 76 153 0.0 0.0 0.00 0.00 0.00 65 1018.0
20260507044333 76 153 0.0 1.0 0.00 0.00 0.00 65 1018.1
20260507043901 76 153 0.0 1.0 0.00 0.00 0.00 64 1018.1
20260507043340 76 163 0.0 1.0 0.00 0.00 0.00 64 1018.0
20260507042842 76 163 0.0 2.0 0.00 0.00 0.00 64 1018.3
20260507042348 77 163 0.0 3.0 0.00 0.00 0.00 64 1018.4
20260507041848 77 159 0.0 3.0 0.00 0.00 0.00 63 1018.2
20260507041351 77 175 0.0 2.0 0.00 0.00 0.00 63 1018.1
20260507040828 77 144 0.0 2.0 0.00 0.00 0.00 63 1018.1
20260507040328 77 143 0.0 2.0 0.00 0.00 0.00 63 1018.3
20260507035825 77 145 0.0 3.0 0.00 0.00 0.00 62 1018.2
20260507035324 77 160 1.0 3.0 0.00 0.00 0.00 62 1018.2
20260507034826 77 144 1.0 3.0 0.00 0.00 0.00 61 1018.1
20260507034328 77 126 1.0 2.0 0.00 0.00 0.00 61 1018.1
20260507033832 78 132 0.0 3.0 0.00 0.00 0.00 61 1018.1
20260507033333 78 123 1.0 3.0 0.00 0.00 0.00 61 1018.1
20260507032905 78 155 0.0 4.0 0.00 0.00 0.00 60 1018.1
20260507032326 78 126 1.0 4.0 0.00 0.00 0.00 60 1018.1
20260507031829 78 127 1.0 4.0 0.00 0.00 0.00 60 1018.1
20260507031333 78 125 2.0 6.0 0.00 0.00 0.00 60 1018.1
20260507030831 78 139 2.0 6.0 0.00 0.00 0.00 60 1018.1
20260507030332 78 124 2.0 6.0 0.00 0.00 0.00 60 1018.1
20260507025904 78 130 2.0 6.0 0.00 0.00 0.00 60 1018.2
20260507025324 78 130 1.0 3.0 0.00 0.00 0.00 61 1018.2
20260507024849 78 124 1.0 3.0 0.00 0.00 0.00 60 1018.2
20260507024329 78 121 1.0 3.0 0.00 0.00 0.00 60 1018.2
20260507023830 79 134 0.0 2.0 0.00 0.00 0.00 60 1018.1
20260507023332 79 165 0.0 2.0 0.00 0.00 0.00 59 1018.1
20260507022901 79 132 0.0 2.0 0.00 0.00 0.00 59 1018.1
20260507022341 79 142 0.0 1.0 0.00 0.00 0.00 59 1018.0
20260507021842 79 142 0.0 2.0 0.00 0.00 0.00 58 1018.0
20260507021345 80 141 1.0 2.0 0.00 0.00 0.00 58 1017.9
20260507020846 80 138 0.0 7.0 0.00 0.00 0.00 57 1017.8
20260507020329 80 151 1.0 7.0 0.00 0.00 0.00 57 1017.9
20260507015831 80 130 1.0 2.0 0.00 0.00 0.00 57 1017.9
20260507015328 81 184 0.0 3.0 0.00 0.00 0.00 57 1018.0
20260507014830 81 184 1.0 3.0 0.00 0.00 0.00 56 1017.7
20260507014332 81 140 1.0 5.0 0.00 0.00 0.00 57 1017.6
20260507013834 81 222 0.0 8.0 0.00 0.00 0.00 57 1017.6
20260507013337 81 219 1.0 9.0 0.00 0.00 0.00 57 1017.4
20260507012842 81 145 5.0 10.0 0.00 0.00 0.00 57 1017.2
20260507012342 81 127 3.0 10.0 0.00 0.00 0.00 57 1017.2
20260507011844 82 130 2.0 9.0 0.00 0.00 0.00 57 1017.2
20260507011346 82 128 3.0 13.0 0.00 0.00 0.00 56 1017.1
20260507010826 82 134 4.0 9.0 0.00 0.00 0.00 56 1017.1
20260507010331 82 107 5.0 12.0 0.00 0.00 0.00 56 1017.2
20260507005831 83 120 5.0 12.0 0.00 0.00 0.00 55 1017.2
20260507005329 83 116 3.0 15.0 0.00 0.00 0.00 55 1017.0
20260507004851 83 112 3.0 15.0 0.00 0.00 0.00 55 1016.9
20260507004350 83 113 4.0 9.0 0.00 0.00 0.00 55 1016.8
20260507003830 84 90 3.0 7.0 0.00 0.00 0.00 55 1016.7
20260507003330 84 121 3.0 9.0 0.00 0.00 0.00 55 1016.7
20260507002829 84 120 3.0 11.0 0.00 0.00 0.00 54 1016.6
20260507002331 84 144 5.0 11.0 0.00 0.00 0.00 54 1016.6
20260507001840 85 132 5.0 11.0 0.00 0.00 0.00 54 1016.6
20260507001342 85 122 4.0 8.0 0.00 0.00 0.00 54 1016.5
20260507000823 86 126 2.0 8.0 0.00 0.00 0.00 54 1016.5
20260507000325 86 136 2.0 10.0 0.00 0.00 0.00 53 1016.4
20260506235824 86 118 5.0 10.0 0.00 0.00 0.00 52 1016.3
20260506235349 87 136 4.0 10.0 0.00 0.00 0.00 52 1016.3
20260506234829 88 137 4.0 10.0 0.00 0.00 0.00 50 1016.3
20260506234331 89 145 4.0 10.0 0.00 0.00 0.00 47 1016.3
20260506233834 90 128 2.0 4.0 0.00 0.00 0.00 41 1016.2
20260506233337 90 142 1.0 4.0 0.00 0.00 0.00 41 1016.2
20260506232842 90 134 2.0 4.0 0.00 0.00 0.00 40 1016.2
20260506232343 91 157 0.0 5.0 0.00 0.00 0.00 40 1016.3
20260506231826 91 184 2.0 5.0 0.00 0.00 0.00 40 1016.2
20260506231326 91 176 1.0 5.0 0.00 0.00 0.00 39 1016.2
20260506230827 91 184 2.0 5.0 0.00 0.00 0.00 39 1016.2
20260506230331 91 176 1.0 4.0 0.00 0.00 0.00 40 1016.2
20260506225901 91 182 1.0 3.0 0.00 0.00 0.00 40 1016.2
20260506225404 91 200 1.0 3.0 0.00 0.00 0.00 40 1016.2
20260506224845 92 127 0.0 4.0 0.00 0.00 0.00 39 1016.2
20260506224347 92 146 1.0 4.0 0.00 0.00 0.00 39 1016.2
20260506223852 92 200 1.0 4.0 0.00 0.00 0.00 39 1016.3
20260506223332 93 178 1.0 6.0 0.00 0.00 0.00 39 1016.3
20260506222828 93 132 2.0 6.0 0.00 0.00 0.00 39 1016.4
20260506222327 93 162 1.0 5.0 0.00 0.00 0.00 40 1016.4
20260506221827 93 191 1.0 5.0 0.00 0.00 0.00 40 1016.5
20260506221327 93 159 1.0 6.0 0.00 0.00 0.00 39 1016.5
20260506220828 93 246 0.0 7.0 0.00 0.00 0.00 39 1016.6
20260506220400 93 251 2.0 9.0 0.00 0.00 0.00 40 1016.5
20260506215838 93 153 2.0 6.0 0.00 0.00 0.00 39 1016.5
20260506215408 93 126 0.0 7.0 0.00 0.00 0.00 40 1016.4
20260506214846 93 132 3.0 7.0 0.00 0.00 0.00 39 1016.5
20260506214348 93 194 2.0 8.0 0.00 0.00 0.00 40 1016.5
20260506213849 93 255 2.0 7.0 0.00 0.00 0.00 39 1016.6
20260506213330 94 236 2.0 7.0 0.00 0.00 0.00 40 1016.6
20260506212830 94 225 1.0 8.0 0.00 0.00 0.00 40 1016.7
20260506212401 94 215 3.0 8.0 0.00 0.00 0.00 40 1016.7
20260506211843 94 183 2.0 9.0 0.00 0.00 0.00 41 1016.7
20260506211346 94 219 3.0 9.0 0.00 0.00 0.00 39 1016.6
20260506210912 94 228 1.0 9.0 0.00 0.00 0.00 41 1016.5
20260506210349 94 150 1.0 7.0 0.00 0.00 0.00 40 1016.6
20260506205829 94 258 1.0 3.0 0.00 0.00 0.00 43 1016.5
20260506205327 94 215 1.0 4.0 0.00 0.00 0.00 40 1016.5
20260506204857 94 133 1.0 4.0 0.00 0.00 0.00 40 1016.5
20260506204335 95 186 1.0 8.0 0.00 0.00 0.00 40 1016.6
20260506203837 95 161 2.0 10.0 0.00 0.00 0.00 41 1016.7
20260506203340 94 82 4.0 10.0 0.00 0.00 0.00 40 1016.6
20260506202843 94 125 2.0 7.0 0.00 0.00 0.00 41 1016.6
20260506202323 94 82 3.0 8.0 0.00 0.00 0.00 41 1016.7
20260506201827 94 109 3.0 8.0 0.00 0.00 0.00 41 1016.8
20260506201325 94 137 3.0 6.0 0.00 0.00 0.00 41 1016.7
20260506200823 94 67 2.0 9.0 0.00 0.00 0.00 41 1016.7
20260506200354 94 126 3.0 9.0 0.00 0.00 0.00 41 1016.7
20260506195834 94 142 1.0 5.0 0.00 0.00 0.00 42 1016.7
20260506195336 94 90 3.0 8.0 0.00 0.00 0.00 40 1016.8
20260506194907 94 93 3.0 6.0 0.00 0.00 0.00 41 1016.8
20260506194343 94 95 3.0 9.0 0.00 0.00 0.00 41 1016.8
20260506193850 93 153 5.0 9.0 0.00 0.00 0.00 41 1016.9
20260506193330 94 66 2.0 9.0 0.00 0.00 0.00 41 1017.0
20260506192903 94 88 5.0 9.0 0.00 0.00 0.00 41 1017.0
20260506192336 95 134 4.0 8.0 0.00 0.00 0.00 40 1017.2
20260506191836 95 160 1.0 4.0 0.00 0.00 0.00 43 1017.3
20260506191338 94 248 0.0 8.0 0.00 0.00 0.00 43 1017.2
20260506190839 94 230 4.0 8.0 0.00 0.00 0.00 41 1017.3
20260506190343 94 140 2.0 7.0 0.00 0.00 0.00 42 1017.3
20260506185823 94 272 1.0 8.0 0.00 0.00 0.00 41 1017.3
20260506185352 93 215 4.0 9.0 0.00 0.00 0.00 42 1017.4
20260506184831 94 127 3.0 9.0 0.00 0.00 0.00 42 1017.5
20260506184333 94 63 1.0 4.0 0.00 0.00 0.00 42 1017.6
20260506183842 94 119 1.0 9.0 0.00 0.00 0.00 41 1017.7
20260506183342 94 107 5.0 9.0 0.00 0.00 0.00 42 1017.8
20260506182843 93 241 2.0 8.0 0.00 0.00 0.00 44 1017.9
20260506182324 93 239 2.0 10.0 0.00 0.00 0.00 42 1017.9
20260506181851 93 159 4.0 10.0 0.00 0.00 0.00 43 1018.0
20260506181400 93 125 1.0 8.0 0.00 0.00 0.00 44 1018.0
20260506180908 93 212 2.0 10.0 0.00 0.00 0.00 44 1017.9
20260506180348 92 117 3.0 10.0 0.00 0.00 0.00 44 1018.0
20260506175828 93 142 3.0 9.0 0.00 0.00 0.00 43 1018.0
20260506175328 93 186 2.0 9.0 0.00 0.00 0.00 45 1018.0
20260506174858 92 140 3.0 9.0 0.00 0.00 0.00 45 1018.1
20260506174338 92 34 2.0 11.0 0.00 0.00 0.00 46 1018.2
20260506173841 92 256 1.0 11.0 0.00 0.00 0.00 46 1018.3
20260506173323 92 151 3.0 9.0 0.00 0.00 0.00 46 1018.4
20260506172847 92 257 2.0 7.0 0.00 0.00 0.00 46 1018.4
20260506172346 91 340 1.0 7.0 0.00 0.00 0.00 49 1018.4
20260506171844 91 258 3.0 9.0 0.00 0.00 0.00 48 1018.5
20260506171344 90 82 2.0 11.0 0.00 0.00 0.00 47 1018.5
20260506170845 90 136 2.0 11.0 0.00 0.00 0.00 48 1018.6
20260506170349 90 69 4.0 10.0 0.00 0.00 0.00 47 1018.6
20260506165827 90 201 2.0 7.0 0.00 0.00 0.00 48 1018.7
20260506165355 89 145 3.0 8.0 0.00 0.00 0.00 49 1018.7
20260506164835 89 138 3.0 10.0 0.00 0.00 0.00 48 1018.8
20260506164335 89 128 3.0 11.0 0.00 0.00 0.00 50 1018.9
20260506163837 89 128 7.0 11.0 0.00 0.00 0.00 50 1019.0
20260506163335 89 190 2.0 6.0 0.00 0.00 0.00 50 1019.0
20260506162834 88 293 2.0 7.0 0.00 0.00 0.00 52 1019.1
20260506162402 88 175 3.0 7.0 0.00 0.00 0.00 51 1019.1
20260506161849 88 277 3.0 6.0 0.00 0.00 0.00 50 1019.2
20260506161349 88 200 2.0 8.0 0.00 0.00 0.00 51 1019.2
20260506160849 88 144 2.0 8.0 0.00 0.00 0.00 51 1019.2
20260506160350 87 205 1.0 11.0 0.00 0.00 0.00 51 1019.1
20260506155828 87 170 3.0 11.0 0.00 0.00 0.00 53 1019.2
20260506155328 86 134 3.0 11.0 0.00 0.00 0.00 53 1019.2
20260506154856 86 132 4.0 11.0 0.00 0.00 0.00 54 1019.3
20260506154330 86 123 5.0 8.0 0.00 0.00 0.00 52 1019.2
20260506153829 86 122 2.0 9.0 0.00 0.00 0.00 54 1019.2
20260506153330 86 71 5.0 9.0 0.00 0.00 0.00 54 1019.1
20260506152829 85 81 2.0 10.0 0.00 0.00 0.00 56 1019.2
20260506152329 85 90 5.0 10.0 0.00 0.00 0.00 56 1019.2
20260506151836 85 268 1.0 9.0 0.00 0.00 0.00 57 1019.2
20260506151403 84 129 2.0 9.0 0.00 0.00 0.00 58 1019.2
20260506150841 84 161 4.0 8.0 0.00 0.00 0.00 58 1019.1
20260506150342 84 121 3.0 7.0 0.00 0.00 0.00 57 1019.2
20260506145845 84 120 4.0 7.0 0.00 0.00 0.00 59 1019.2
20260506145344 84 242 1.0 10.0 0.00 0.00 0.00 61 1019.2
20260506144842 83 115 4.0 10.0 0.00 0.00 0.00 62 1019.2
20260506144343 83 252 3.0 9.0 0.00 0.00 0.00 64 1019.2
20260506143845 82 219 2.0 7.0 0.00 0.00 0.00 64 1019.2
20260506143326 82 138 2.0 7.0 0.00 0.00 0.00 65 1019.1
20260506142855 82 217 5.0 7.0 0.00 0.00 0.00 65 1019.2
20260506142335 82 176 2.0 11.0 0.00 0.00 0.00 66 1019.1
20260506141835 81 151 6.0 11.0 0.00 0.00 0.00 65 1019.1
20260506141337 81 117 5.0 10.0 0.00 0.00 0.00 68 1019.1
20260506140843 80 113 5.0 9.0 0.00 0.00 0.00 67 1019.1
20260506140344 80 163 3.0 9.0 0.00 0.00 0.00 69 1019.1
20260506135844 80 171 3.0 8.0 0.00 0.00 0.00 70 1019.0
20260506135338 80 205 1.0 9.0 0.00 0.00 0.00 72 1019.0
20260506134845 79 111 5.0 9.0 0.00 0.00 0.00 73 1018.9
20260506134343 79 98 1.0 9.0 0.00 0.00 0.00 75 1018.9
20260506133844 79 136 1.0 4.0 0.00 0.00 0.00 77 1019.0
20260506133344 78 121 1.0 8.0 0.00 0.00 0.00 78 1018.9
20260506132842 77 128 3.0 8.0 0.00 0.00 0.00 78 1018.9
20260506132341 77 208 4.0 10.0 0.00 0.00 0.00 79 1019.0
20260506131825 77 125 5.0 10.0 0.00 0.00 0.00 79 1018.9
20260506131354 76 89 2.0 10.0 0.00 0.00 0.00 80 1019.1
20260506130834 76 128 2.0 8.0 0.00 0.00 0.00 81 1019.0
20260506130403 75 134 2.0 8.0 0.00 0.00 0.00 82 1019.1
20260506125831 74 128 2.0 4.0 0.00 0.00 0.00 84 1018.9
20260506125330 72 121 0.0 0.0 0.00 0.00 0.00 86 1018.9
20260506124828 71 121 0.0 0.0 0.00 0.00 0.00 85 1018.8
20260506124356 70 121 0.0 0.0 0.00 0.00 0.00 85 1018.8
20260506123833 69 121 0.0 0.0 0.00 0.00 0.00 86 1018.7
20260506123405 68 121 0.0 0.0 0.00 0.00 0.00 87 1018.7
20260506122826 68 121 0.0 0.0 0.00 0.00 0.00 87 1018.7
20260506122329 67 121 0.0 0.0 0.00 0.00 0.00 87 1018.6
20260506121830 67 121 0.0 0.0 0.00 0.00 0.00 87 1018.6
20260506121400 66 121 0.0 0.0 0.00 0.00 0.00 88 1018.5
20260506120838 66 121 0.0 0.0 0.00 0.00 0.00 89 1018.5
20260506120338 65 121 0.0 0.0 0.00 0.00 0.00 89 1018.5
20260506115838 65 121 0.0 0.0 0.00 0.00 0.00 90 1018.5
20260506115340 64 121 0.0 0.0 0.00 0.00 0.00 90 1018.5
20260506114823 64 121 0.0 0.0 0.00 0.00 0.00 91 1018.5
20260506114325 63 121 0.0 0.0 0.00 0.00 0.00 92 1018.5
20260506113827 62 121 0.0 0.0 0.00 0.00 0.00 92 1018.4
20260506113355 61 121 0.0 0.0 0.00 0.00 0.00 91 1018.5
20260506112904 61 121 0.0 0.0 0.00 0.00 0.00 91 1018.4
20260506112341 61 121 0.0 0.0 0.00 0.00 0.00 90 1018.3
20260506111842 61 121 0.0 0.0 0.00 0.00 0.00 90 1018.2
20260506111324 60 121 0.0 0.0 0.00 0.00 0.00 90 1018.3
20260506110827 61 121 0.0 0.0 0.00 0.00 0.00 90 1018.2
20260506110331 61 121 0.0 0.0 0.00 0.00 0.00 90 1018.2
20260506105830 61 121 0.0 0.0 0.00 0.00 0.00 90 1018.1
20260506105330 61 121 0.0 0.0 0.00 0.00 0.00 90 1017.9
20260506104829 61 121 0.0 0.0 0.00 0.00 0.00 90 1017.8
20260506104357 61 121 0.0 0.0 0.00 0.00 0.00 90 1017.8
20260506103903 61 121 0.0 0.0 0.00 0.00 0.00 90 1017.8
20260506103343 61 121 0.0 0.0 0.00 0.00 0.00 90 1017.7
20260506102846 61 121 0.0 0.0 0.00 0.00 0.00 90 1017.6
20260506102326 61 121 0.0 0.0 0.00 0.00 0.00 90 1017.6
20260506101828 61 121 0.0 0.0 0.00 0.00 0.00 89 1017.6
20260506101330 61 121 0.0 0.0 0.00 0.00 0.00 89 1017.6
20260506100829 61 121 0.0 0.0 0.00 0.00 0.00 89 1017.6
20260506100325 61 121 0.0 0.0 0.00 0.00 0.00 89 1017.6
20260506095827 61 121 0.0 0.0 0.00 0.00 0.00 89 1017.6
20260506095327 61 121 0.0 0.0 0.00 0.00 0.00 89 1017.7
20260506094828 61 121 0.0 0.0 0.00 0.00 0.00 89 1017.8
20260506094330 61 121 0.0 0.0 0.00 0.00 0.00 89 1017.8
20260506093900 61 121 0.0 0.0 0.00 0.00 0.00 89 1017.9
20260506093342 61 121 0.0 0.0 0.00 0.00 0.00 89 1017.7
20260506092845 61 121 0.0 0.0 0.00 0.00 0.00 89 1017.6
20260506092344 61 121 0.0 0.0 0.00 0.00 0.00 89 1017.6
20260506091846 61 121 0.0 0.0 0.00 0.00 0.00 89 1017.6
20260506091327 61 121 0.0 0.0 0.00 0.00 0.00 89 1017.5
20260506090827 61 121 0.0 0.0 0.00 0.00 0.00 89 1017.5
20260506090354 61 121 0.0 0.0 0.00 0.00 0.00 88 1017.4
20260506085843 61 121 0.0 0.0 0.00 0.00 0.00 88 1017.4
20260506085323 61 121 0.0 0.0 0.00 0.00 0.00 88 1017.3
20260506084824 61 121 0.0 0.0 0.00 0.00 0.00 88 1017.3
20260506084329 61 121 0.0 0.0 0.00 0.00 0.00 88 1017.4